Temp
86 86 86 86 86 85 85 85 84 84 83 82 81 80 80 79 78 76 75 76 75 74 75 75 75 76 74 74 75 74 72 71 68 69 71 73 73 72 74 74 76 73 73
87 86 86 86 86 85 84 85 85 84 84 82 82 80 80 78 78 75 75 77 76 74 74 74 74 78 73 74 73 72 72 73 70 67 70 70 71 73 73 71 75 80 74
89 88 86 86 85 85 84 85 85 84 83 83 81 80 79 78 77 76 75 75 76 74 74 74 73 74 73 73 72 71 71 72 71 67 68 70 70 70 69 70 70 71 75
91 89 86 86 86 86 85 84 85 84 83 83 81 80 80 79 77 77 77 76 75 75 76 75 74 73 73 73 72 71 71 69 68 64 66 69 69 70 70 67 67 69 68
90 90 87 87 86 86 85 85 85 84 84 83 81 80 80 79 81 77 77 76 75 74 76 75 76 76 75 73 71 71 70 68 67 66 67 69 69 67 65 67 66 66 68
89 89 88 86 85 84 84 84 84 84 83 82 80 80 78 78 73 71 76 77 75 73 74 75 76 74 73 69 65 67 70 68 66 65 66 66 65 65 66 66 64 64 63
88 88 87 86 85 84 85 84 83 82 82 80 80 79 76 76 66 66 71 77 74 75 75 74 75 78 73 74 67 67 66 65 67 67 65 66 65 65 65 64 63 63 62
88 88 88 87 85 84 84 84 83 82 81 79 78 74 74 76 67 64 66 72 73 73 75 74 72 72 73 73 72 71 68 68 66 66 65 67 67 67 66 65 63 62 64
89 88 88 88 86 85 84 83 82 80 78 76 74 72 71 73 63 62 64 72 73 73 74 73 72 73 68 62 69 68 67 69 70 64 65 64 64 62 64 64 62 61 61
89 89 89 88 86 84 83 80 78 77 76 77 73 73 70 73 63 61 63 75 73 73 71 71 65 70 61 59 67 66 65 67 68 69 69 66 63 65 62 63 65 61 62
90 89 88 87 85 84 82 79 76 76 77 74 73 74 74 71 72 58 58 72 71 69 69 68 71 59 57 57 58 67 64 62 66 67 67 68 69 70 70 70 65 63 62
87 86 84 84 85 83 79 76 76 75 73 72 72 71 71 74 62 57 56 59 63 70 70 69 68 55 54 57 56 59 57 58 64 65 65 66 67 66 66 65 65 64 65
84 82 82 82 79 78 76 75 74 75 74 72 73 72 71 73 72 55 55 56 57 62 71 60 55 54 58 55 55 58 58 62 63 64 64 64 64 65 66 65 65 65 65
80 79 78 76 75 76 75 76 75 74 74 75 73 72 71 71 71 69 67 62 57 62 59 59 60 60 61 63 61 57 61 64 64 64 63 64 65 64 63 63 61 61 60
77 76 75 74 74 72 65 68 75 65 65 74 73 74 75 73 73 66 66 68 67 63 64 67 65 65 66 64 64 64 64 64 63 65 64 63 61 62 61 62 60 60 59
76 75 73 74 72 73 69 65 47 48 46 46 49 68 64 52 49 48 48 48 51 58 67 67 68 70 69 69 64 64 62 63 64 64 62 61 60 60 60 60 60 59 57
77 76 78 75 77 74 73 71 67 56 47 45 45 51 56 49 46 45 46 47 51 58 68 68 68 70 69 68 67 67 66 66 64 64 63 62 61 60 59 59 59 59 58
80 70 80 80 80 78 78 76 76 71 69 65 48 52 44 44 44 44 46 53 64 60 67 69 70 69 68 67 67 66 65 64 63 62 60 60 61 60 59 59 59 58 58
79 80 77 82 83 79 80 81 79 75 74 67 60 54 47 43 44 46 45 66 69 71 69 68 71 70 68 67 66 65 64 63 61 60 60 60 61 61 59 60 60 56 57
80 71 76 83 79 82 82 81 81 79 70 68 68 66 63 60 63 64 64 66 69 72 73 71 70 68 66 66 65 63 63 62 62 62 61 61 61 61 61 61 61 60 59
83 81 70 82 80 83 82 81 82 82 77 74 70 69 57 67 69 69 70 69 71 73 71 70 68 68 67 65 65 64 63 63 63 63 62 61 60 61 60 61 62 63 63
81 80 83 83 80 78 82 81 82 82 78 74 77 66 51 70 74 73 68 66 70 70 70 68 70 70 70 67 63 64 63 63 64 63 61 61 61 62 61 61 62 63 62
82 80 80 74 71 70 73 81 75 77 67 75 75 70 66 71 73 70 70 72 69 66 66 68 70 70 70 67 66 65 64 63 62 62 61 60 61 61 61 61 62 61 62
81 76 76 75 71 75 73 68 66 68 73 75 72 72 71 73 73 67 69 68 69 66 67 70 67 71 68 67 67 67 64 62 62 60 58 58 60 60 61 61 62 61 62
77 76 65 71 75 69 76 77 72 79 78 77 73 71 74 72 73 71 67 67 66 66 68 67 65 70 69 67 64 58 42 42 51 43 58 58 58 58 61 61 61 61 62
79 77 72 72 71 77 74 77 76 69 70 74 75 75 73 71 73 72 71 71 71 70 70 68 66 70 69 67 60 44 35 40 47 39 50 55 58 60 60 60 61 61 61
MSLP
1005.96 1006.64 1007.27 1007.80 1008.36 1008.88 1009.16 1009.63 1009.96 1010.52 1010.86 1011.68 1012.24 1012.87 1013.53 1014.11 1014.62 1015.19 1015.40 1015.57 1015.62 1015.57 1015.48 1016.37 1016.83 1016.63 1016.89 1017.03 1017.10 1017.19 1017.28 1017.32 1017.60 1017.50 1017.36 1017.13 1016.99 1016.90 1016.72 1016.55 1016.42 1016.46 1016.34
1004.94 1005.73 1006.29 1006.83 1007.52 1008.05 1008.56 1008.83 1009.30 1009.80 1010.39 1010.98 1011.70 1012.33 1012.86 1013.47 1013.93 1014.45 1015.04 1014.91 1015.12 1015.47 1015.53 1015.60 1016.20 1016.58 1016.78 1016.88 1016.93 1017.04 1017.01 1017.00 1017.31 1017.42 1017.25 1017.20 1016.83 1016.53 1016.28 1016.24 1015.92 1015.56 1015.53
1003.96 1004.64 1005.26 1005.89 1006.61 1006.98 1007.50 1008.14 1008.63 1009.20 1009.74 1010.30 1010.85 1011.40 1011.89 1012.50 1013.05 1013.47 1014.02 1014.42 1014.63 1014.80 1014.96 1015.11 1015.43 1015.96 1016.24 1016.51 1016.74 1016.98 1017.02 1016.84 1017.03 1017.23 1017.06 1016.51 1016.25 1016.03 1015.90 1015.62 1015.37 1015.12 1015.07
1002.82 1003.49 1004.15 1004.89 1005.35 1005.90 1006.57 1007.38 1007.92 1008.28 1008.91 1009.46 1010.13 1010.83 1011.38 1011.95 1012.58 1013.13 1013.74 1014.11 1014.17 1014.27 1014.42 1014.46 1014.83 1015.41 1015.74 1015.95 1016.21 1016.53 1016.70 1016.80 1016.89 1017.05 1017.06 1016.32 1016.01 1015.61 1015.46 1015.60 1015.32 1015.03 1014.96
1001.47 1002.28 1003.04 1003.74 1004.35 1005.08 1005.82 1006.33 1006.98 1007.53 1008.22 1009.00 1009.75 1010.40 1010.94 1011.63 1012.15 1012.70 1013.24 1013.75 1014.05 1014.10 1014.06 1014.11 1014.17 1014.66 1014.91 1015.25 1015.73 1016.08 1016.37 1016.47 1016.49 1016.48 1016.24 1016.14 1015.84 1015.69 1015.80 1015.66 1015.44 1015.16 1014.78
1000.23 1001.09 1001.88 1002.78 1003.50 1004.21 1004.90 1005.62 1006.35 1006.96 1007.65 1008.37 1009.05 1009.67 1010.39 1011.02 1011.77 1012.31 1012.88 1013.16 1013.43 1013.64 1013.76 1013.65 1013.67 1013.91 1014.31 1014.75 1015.32 1015.52 1015.66 1015.78 1015.83 1015.99 1016.07 1015.75 1015.54 1015.55 1015.63 1015.66 1015.50 1015.34 1014.54
999.26 1000.16 1000.93 1001.68 1002.56 1003.46 1004.37 1005.14 1005.77 1006.44 1007.16 1007.92 1008.57 1009.33 1010.26 1011.22 1011.38 1011.76 1012.15 1012.65 1012.89 1013.09 1013.12 1013.27 1013.55 1013.66 1014.01 1014.26 1014.70 1014.86 1014.93 1014.85 1015.09 1015.25 1015.28 1015.25 1015.26 1015.15 1015.36 1015.41 1015.24 1015.07 1014.76
998.40 999.32 1000.14 1000.85 1001.72 1002.79 1003.74 1004.45 1005.15 1005.87 1006.67 1007.56 1008.39 1009.11 1009.97 1010.76 1011.42 1011.79 1012.19 1012.32 1012.37 1012.40 1012.52 1012.72 1012.90 1013.30 1013.66 1013.87 1014.01 1014.28 1014.54 1014.38 1014.52 1014.82 1014.84 1014.65 1014.59 1014.53 1014.71 1014.80 1014.70 1014.52 1014.14
997.52 998.37 999.27 1000.12 1001.22 1002.30 1003.19 1004.05 1004.97 1005.89 1006.76 1007.52 1008.24 1009.11 1009.96 1010.70 1011.26 1011.45 1011.79 1012.01 1012.01 1012.03 1012.15 1012.45 1012.53 1012.64 1012.99 1013.40 1013.90 1014.20 1014.35 1013.86 1013.59 1013.74 1013.71 1013.72 1013.83 1013.93 1013.96 1014.22 1014.18 1013.99 1013.51
996.71 997.64 998.64 999.74 1000.86 1001.96 1003.08 1004.17 1005.11 1005.98 1006.76 1007.31 1008.12 1008.83 1009.62 1010.18 1010.49 1010.72 1011.32 1011.41 1011.45 1011.68 1011.90 1011.85 1011.98 1012.26 1012.91 1013.39 1013.92 1013.98 1013.94 1013.66 1013.42 1013.27 1013.46 1013.58 1013.61 1013.36 1013.18 1013.43 1013.20 1013.40 1013.23
996.81 997.96 998.96 1000.01 1001.03 1002.10 1003.11 1004.09 1005.15 1006.07 1006.79 1007.46 1008.05 1008.56 1009.14 1009.69 1009.98 1010.42 1010.68 1010.97 1011.11 1011.39 1011.60 1011.73 1011.66 1012.03 1012.54 1013.13 1013.61 1013.83 1013.93 1013.92 1013.65 1013.44 1013.25 1013.12 1012.84 1012.54 1012.19 1012.07 1012.49 1012.90 1012.67
997.42 998.37 999.46 1000.55 1001.39 1002.49 1003.59 1004.42 1005.41 1006.15 1006.81 1007.41 1007.90 1008.25 1008.62 1009.07 1009.75 1010.04 1010.49 1010.85 1011.24 1011.43 1011.39 1011.48 1011.80 1011.97 1012.61 1013.11 1013.75 1013.80 1013.95 1013.84 1013.62 1013.34 1013.08 1012.73 1012.50 1012.03 1011.81 1011.96 1011.85 1011.71 1011.54
997.95 999.04 1000.11 1001.14 1001.97 1002.94 1003.65 1004.96 1005.74 1006.22 1006.75 1007.24 1007.58 1007.88 1008.33 1008.64 1009.36 1009.76 1010.30 1010.83 1011.09 1011.42 1011.24 1011.43 1011.70 1012.34 1012.80 1013.26 1013.46 1013.40 1013.56 1013.54 1013.43 1013.09 1012.79 1012.50 1012.19 1011.83 1011.71 1011.65 1011.39 1011.13 1011.01
998.60 999.81 1000.75 1001.66 1002.63 1003.51 1004.57 1005.28 1005.98 1006.51 1006.93 1007.15 1007.32 1007.70 1008.24 1008.63 1009.09 1009.66 1010.08 1010.55 1010.95 1011.07 1011.51 1011.83 1012.06 1012.01 1012.24 1012.48 1012.65 1013.06 1013.20 1013.09 1012.75 1012.57 1012.45 1012.24 1011.86 1011.82 1011.78 1011.60 1011.59 1011.32 1011.17
999.33 1000.43 1001.48 1002.45 1003.33 1004.21 1005.35 1006.24 1006.32 1006.92 1007.20 1007.27 1007.41 1007.63 1007.93 1008.30 1008.68 1009.00 1009.78 1010.21 1010.36 1010.61 1010.96 1011.15 1011.75 1011.59 1011.66 1011.76 1011.94 1012.20 1012.33 1012.35 1012.35 1012.08 1011.96 1012.06 1012.12 1012.08 1011.85 1011.51 1011.44 1011.39 1011.03
999.92 1001.06 1001.97 1002.80 1003.82 1004.55 1005.61 1006.88 1007.53 1007.58 1007.64 1007.64 1007.29 1007.06 1008.33 1008.28 1008.58 1009.27 1009.72 1010.23 1010.04 1010.14 1010.45 1010.57 1010.69 1010.52 1010.40 1010.40 1011.19 1011.48 1011.69 1011.81 1011.77 1011.73 1011.93 1012.00 1012.08 1011.97 1011.76 1011.51 1011.23 1010.99 1010.69
1000.06 1000.98 1001.56 1002.50 1003.25 1004.14 1004.85 1005.68 1007.00 1008.25 1007.84 1007.95 1008.02 1008.14 1008.42 1009.08 1009.46 1009.55 1009.88 1010.11 1010.18 1010.23 1010.26 1010.23 1010.16 1009.83 1010.02 1010.39 1010.67 1010.90 1011.09 1011.21 1011.39 1011.49 1011.73 1011.83 1011.85 1011.73 1011.50 1011.27 1011.00 1010.64 1010.30
999.56 1000.29 1001.03 1001.21 1002.10 1002.90 1003.42 1004.29 1005.14 1006.41 1007.10 1008.09 1008.88 1009.15 1009.48 1009.83 1009.98 1009.88 1010.06 1010.13 1010.38 1010.28 1010.01 1009.73 1009.52 1009.72 1009.99 1010.30 1010.60 1010.98 1011.19 1011.35 1011.53 1011.75 1011.93 1011.96 1011.75 1011.44 1011.29 1011.05 1010.73 1010.41 1010.02
999.76 1000.09 999.88 1000.35 1001.09 1001.93 1002.54 1003.03 1003.91 1005.00 1005.72 1007.21 1008.91 1009.48 1009.84 1009.89 1009.86 1010.11 1010.22 1010.07 1009.69 1009.31 1009.35 1009.12 1009.26 1009.66 1010.07 1010.32 1010.60 1010.93 1011.25 1011.52 1011.77 1011.87 1011.89 1011.72 1011.41 1011.31 1011.11 1010.84 1010.48 1010.04 1009.53
999.87 999.99 1000.31 1000.15 1000.99 1001.59 1002.00 1002.50 1003.03 1003.69 1005.28 1006.47 1007.43 1008.04 1008.81 1009.29 1009.64 1009.80 1009.82 1009.65 1009.35 1008.93 1008.77 1008.87 1009.27 1009.79 1010.23 1010.58 1010.90 1011.16 1011.37 1011.39 1011.42 1011.35 1011.41 1011.37 1011.28 1011.15 1011.02 1010.67 1010.27 1009.84 1009.21
999.68 1000.56 1000.71 1000.19 1000.95 1001.54 1001.86 1002.41 1002.64 1003.00 1003.93 1005.30 1006.17 1007.07 1007.29 1008.04 1008.34 1008.47 1008.59 1008.75 1008.57 1008.66 1008.64 1008.88 1009.43 1009.83 1010.19 1010.54 1010.81 1011.09 1011.23 1011.20 1011.05 1011.03 1011.19 1011.31 1011.25 1011.14 1010.83 1010.50 1010.12 1009.51 1008.97
999.87 1000.43 1000.50 1000.51 1000.92 1001.51 1001.62 1002.09 1002.43 1002.75 1003.46 1004.59 1005.08 1006.41 1007.07 1007.62 1007.31 1007.21 1007.49 1007.90 1008.06 1008.28 1008.59 1008.99 1009.39 1009.72 1009.87 1010.16 1010.67 1010.94 1011.08 1011.06 1010.87 1011.01 1011.34 1011.46 1011.31 1011.00 1010.70 1010.55 1009.98 1009.41 1008.92
999.96 1000.28 1000.30 1001.21 1001.52 1001.58 1002.31 1002.41 1003.08 1003.32 1004.26 1005.18 1005.25 1006.30 1007.32 1007.11 1006.87 1006.93 1007.04 1007.56 1008.04 1008.34 1008.52 1008.77 1009.24 1009.66 1009.85 1009.99 1010.50 1010.94 1011.05 1010.97 1011.07 1011.33 1011.67 1011.68 1011.43 1011.05 1010.83 1010.47 1009.95 1009.45 1009.09
1000.42 1000.96 1001.01 1001.52 1001.85 1002.13 1002.61 1003.09 1003.87 1003.94 1004.28 1004.51 1005.25 1005.84 1006.28 1006.44 1006.67 1006.83 1007.17 1007.51 1007.80 1008.21 1008.34 1008.65 1009.08 1009.42 1009.81 1010.17 1010.41 1010.65 1010.97 1011.24 1011.47 1011.90 1012.31 1012.23 1011.75 1011.17 1010.89 1010.43 1009.91 1009.57 1009.09
1001.24 1001.32 1001.85 1002.18 1001.93 1002.35 1002.81 1002.90 1003.08 1003.13 1003.41 1003.80 1004.90 1005.15 1005.59 1005.69 1006.03 1006.72 1007.11 1007.36 1007.75 1008.06 1008.39 1008.55 1008.83 1009.12 1009.49 1010.13 1010.78 1011.50 1012.04 1012.02 1012.37 1012.60 1012.41 1012.31 1011.94 1011.31 1010.77 1010.51 1010.16 1009.66 1009.10
1001.24 1001.53 1001.73 1001.64 1002.36 1002.30 1002.35 1002.69 1002.66 1003.08 1003.52 1003.66 1003.75 1004.30 1004.82 1005.19 1005.54 1006.25 1006.69 1006.93 1007.30 1007.64 1007.87 1008.22 1008.49 1008.74 1009.16 1009.79 1010.72 1011.69 1012.20 1012.32 1012.52 1012.79 1012.79 1012.47 1011.84 1011.14 1010.88 1010.73 1010.14 1009.76 1009.29
Wind_Speed
19 18 17 16 17 15 12 12 12 10 10 11 12 12 11 10 9 8 7 9 8 7 6 4 4 5 2 4 1 1 2 1 1 3 2 3 3 4 5 5 5 6 6
19 18 19 18 17 17 16 13 13 12 10 10 12 12 13 12 11 11 11 8 8 11 9 7 6 4 6 5 3 5 3 3 2 4 3 4 6 4 4 5 6 7 5
19 20 19 18 18 18 18 17 12 13 12 14 13 14 14 14 13 13 13 11 9 8 7 7 7 7 5 4 4 3 3 2 2 3 5 3 5 3 4 5 5 6 4
21 21 20 20 19 18 16 16 17 15 15 14 14 13 14 14 13 13 12 10 8 7 7 8 7 7 6 7 5 5 4 3 3 3 9 4 3 5 4 3 4 2 4
21 21 20 18 18 16 16 16 16 16 14 14 12 12 12 12 10 11 11 10 9 8 7 7 7 7 10 9 5 6 6 4 3 4 5 7 7 4 4 4 4 4 6
19 21 19 18 18 17 16 15 14 13 14 13 14 14 13 10 12 14 12 10 10 8 8 7 6 11 13 5 6 10 6 5 6 4 6 9 6 4 2 5 5 6 8
16 18 18 17 17 16 15 14 13 14 12 14 13 11 9 10 7 7 13 8 6 9 8 6 6 6 8 7 11 11 11 13 11 6 9 8 8 4 4 6 6 5 8
13 16 16 15 16 15 14 14 12 10 12 9 8 7 7 7 6 7 9 7 7 8 8 8 7 7 6 7 6 5 6 7 8 7 9 11 9 6 5 4 6 7 7
18 14 16 14 15 14 14 12 9 8 7 6 4 7 7 7 9 12 11 9 10 9 6 7 8 8 10 6 3 6 8 8 7 10 14 10 8 9 9 3 8 6 8
14 14 11 11 13 13 12 10 8 7 5 6 6 7 9 9 11 14 13 9 10 7 7 8 9 9 3 5 6 7 6 6 5 5 2 4 7 10 15 10 10 8 8
11 11 9 9 10 10 9 7 7 6 6 6 7 8 10 9 7 11 16 9 6 4 7 6 6 9 7 7 4 4 2 4 6 5 5 6 8 9 10 8 6 5 6
11 11 10 9 8 8 9 7 7 7 7 6 5 4 4 5 1 10 10 12 3 2 4 4 3 10 10 7 4 2 1 3 4 5 6 7 7 3 3 3 4 5 6
12 12 11 10 7 10 10 8 7 7 6 6 6 6 5 4 4 7 8 7 5 2 3 2 11 11 7 5 9 9 6 4 5 6 6 3 3 4 5 5 6 6 6
14 12 11 10 10 8 7 7 7 6 5 5 4 4 3 5 6 6 6 6 6 5 8 8 8 9 9 6 4 6 5 6 5 4 3 4 3 3 4 3 3 4 4
12 11 10 9 9 8 7 3 4 5 2 4 5 5 5 6 6 8 4 5 6 7 8 5 5 5 7 7 6 7 7 5 5 5 1 3 3 4 3 3 3 5 6
12 9 8 8 7 7 7 7 14 10 8 10 8 7 5 8 14 13 11 10 10 7 4 4 4 6 5 0 7 6 4 7 3 3 3 2 4 3 4 4 4 4 4
13 11 9 11 10 9 9 8 7 5 10 13 11 9 8 11 10 13 12 10 7 4 1 3 6 2 3 3 3 3 3 3 3 0 2 2 3 4 4 4 5 4 4
11 14 11 10 10 10 10 9 9 8 7 5 11 8 10 9 7 8 10 8 2 1 3 5 1 3 3 3 3 2 3 4 4 4 4 4 5 3 3 4 5 4 5
6 4 5 4 9 11 8 7 10 10 10 9 7 5 7 8 9 7 3 2 4 4 6 2 3 3 3 3 3 3 3 2 1 2 4 5 3 3 4 5 5 8 8
4 2 5 6 5 5 6 5 6 6 11 9 9 9 9 7 6 5 5 4 5 4 2 3 4 4 4 3 3 3 2 3 3 3 2 3 4 3 5 5 5 7 6
5 4 4 5 6 6 6 6 6 6 10 9 8 10 14 9 8 8 8 7 5 3 1 4 4 3 2 3 2 2 3 4 3 2 3 3 4 4 5 4 7 7 6
7 6 4 4 6 5 6 3 3 2 6 8 7 10 18 7 7 4 6 5 4 2 2 4 2 2 1 3 4 3 3 4 3 3 4 4 4 5 4 6 7 6 6
4 6 5 3 5 8 1 4 5 5 8 3 7 9 8 6 5 1 4 6 4 4 3 3 3 1 2 4 4 1 4 3 4 5 3 4 5 4 4 6 7 5 7
4 7 8 7 6 5 2 6 5 2 9 8 8 8 9 5 3 4 3 4 4 3 4 4 3 1 5 3 1 2 4 6 5 6 6 5 7 6 5 7 6 7 8
3 6 4 4 6 3 3 8 10 10 4 5 9 7 8 6 5 5 5 5 4 3 4 4 4 4 5 4 5 9 7 11 8 2 3 5 8 11 4 5 7 7 7
5 4 2 3 2 3 3 4 1 4 4 4 3 4 4 5 5 6 7 7 6 7 7 5 5 8 6 7 12 13 7 8 6 5 3 5 7 7 4 6 8 6 6
Wind_Direction
188 190 194 198 197 204 214 199 194 205 186 168 176 174 181 189 182 182 209 206 199 189 173 197 254 193 217 279 346 318 289 323 23 303 324 307 301 269 270 259 231 230 234
186 190 196 198 199 201 210 217 198 194 184 180 176 182 187 187 183 185 208 217 194 194 194 185 195 213 216 249 275 276 279 293 222 260 250 266 242 250 246 263 249 245 235
188 194 195 198 198 204 205 208 207 198 196 189 184 190 192 190 191 192 198 217 200 199 197 186 189 210 212 208 213 256 268 279 320 291 276 254 234 240 268 255 266 260 264
190 196 198 198 201 205 203 202 207 202 198 197 198 195 198 197 194 197 202 212 211 211 204 188 182 195 197 210 220 233 245 252 269 278 274 268 260 265 245 287 304 278 255
191 195 198 201 202 203 205 203 205 207 201 206 197 202 202 201 203 194 198 208 208 223 203 199 191 205 203 206 190 225 223 215 221 249 280 295 292 311 317 300 286 295 289
192 195 196 197 198 202 201 206 198 207 200 200 199 203 196 196 201 192 205 202 206 207 219 206 204 200 227 214 237 238 211 209 230 234 257 263 274 276 306 298 307 298 291
190 191 195 192 194 196 197 196 204 198 199 198 203 204 187 205 142 184 194 202 201 219 214 194 210 223 202 203 219 215 216 216 220 223 243 255 266 259 275 279 279 304 288
184 188 192 190 187 188 191 197 194 188 194 192 191 176 182 189 210 207 232 223 229 226 209 199 193 230 222 213 208 225 234 241 229 231 231 248 252 249 233 235 259 262 267
188 183 190 177 174 178 184 181 181 170 176 185 165 156 173 209 220 207 198 221 225 235 215 202 203 217 226 228 239 250 269 261 254 235 225 232 224 230 234 255 259 263 272
186 182 158 157 164 168 169 157 148 154 172 163 152 170 183 218 206 207 197 217 220 218 230 227 207 228 268 215 222 252 258 258 265 299 294 276 260 257 248 234 248 250 264
159 157 152 151 151 152 142 130 131 164 169 164 168 185 200 207 213 203 201 213 231 230 239 237 229 212 186 165 216 263 301 357 324 305 293 282 267 256 249 249 220 233 270
140 142 135 136 147 129 126 120 145 147 145 158 166 179 193 199 227 194 191 212 131 260 260 190 213 139 141 168 191 160 119 303 276 276 271 270 273 309 2 8 264 254 257
130 127 126 127 102 121 132 141 143 153 162 168 182 194 194 170 143 137 161 193 224 224 285 136 130 136 148 184 215 207 207 240 253 263 271 290 312 316 325 298 277 268 260
118 110 112 105 108 113 114 141 141 155 170 194 192 160 181 151 162 168 175 169 151 134 124 141 166 169 185 221 165 200 222 241 238 251 281 273 285 336 319 306 316 316 311
107 110 109 115 120 105 62 48 131 72 340 194 188 166 166 160 166 142 159 167 166 186 172 148 190 195 213 210 206 200 209 227 239 243 305 325 340 304 310 315 317 299 284
131 131 134 133 125 125 123 101 41 51 41 39 37 110 76 78 120 123 125 129 116 134 192 204 231 241 225 201 188 206 203 226 238 51 18 320 283 302 292 295 278 277 291
140 154 155 150 156 159 158 151 137 69 70 57 46 59 114 137 125 126 123 102 88 116 226 255 258 251 57 40 21 13 3 53 143 302 275 302 311 290 295 298 287 290 291
149 161 168 169 169 172 167 174 161 167 157 121 44 80 78 110 118 130 146 142 148 189 243 242 251 52 42 64 57 6 13 25 21 22 12 327 289 290 307 296 295 300 289
138 163 154 188 155 168 174 172 162 174 164 129 135 126 115 106 93 85 46 273 265 239 201 215 116 87 42 33 64 53 62 4 16 288 271 264 308 323 311 299 306 299 293
136 249 218 133 129 126 139 182 204 154 137 151 167 159 156 148 166 178 200 214 247 278 352 81 75 79 61 47 31 32 318 274 284 246 252 350 302 329 304 306 307 300 296
148 141 15 139 141 165 169 203 213 196 152 162 167 162 164 176 180 189 191 202 210 223 298 115 72 79 113 168 178 216 252 277 281 0 17 346 340 301 292 325 304 307 313
151 166 179 239 153 171 173 187 190 160 134 177 162 155 162 199 207 188 168 168 161 154 117 126 111 352 331 89 69 12 332 287 280 59 35 343 321 307 350 314 308 317 330
133 170 169 99 82 106 16 152 86 81 101 169 134 144 178 211 247 282 136 123 128 138 146 140 123 211 289 122 104 355 292 313 59 53 8 336 311 328 325 311 311 341 322
97 43 65 82 70 46 24 82 21 180 156 149 153 161 186 182 77 71 147 152 146 189 151 126 138 230 73 67 71 196 33 51 51 54 19 322 309 322 320 303 331 329 310
61 125 74 296 140 203 224 188 190 222 178 183 174 164 184 179 182 162 131 137 136 148 187 153 167 185 173 137 99 92 77 63 67 7 323 330 302 299 322 343 326 317 322
134 119 313 84 30 226 154 287 40 150 183 235 181 213 187 163 192 189 188 186 189 193 194 181 207 176 155 154 116 130 125 107 96 62 336 292 286 302 25 317 320 316 343